This is the latest recevied weather packets stored in our database for station/object KL1SF-7. If no packets are shown the sender has not sent any weather packets the latest 10 day(s).
| Time | Temp. | Humidity | Pressure | Rain* | Wind** | Luminosity | Snow |
|---|---|---|---|---|---|---|---|
| 1777580016 | 16.67° C | 17% | 1014.7 hPa | 0 mm | - | - | - |
| 1777579429 | 16.67° C | 17% | 1015.1 hPa | 0 mm | - | - | - |
| 1777578809 | 16.67° C | 17% | 1015.1 hPa | 0 mm | - | - | - |
| 1777578219 | 16.67° C | 17% | 1015.1 hPa | 0 mm | - | - | - |
| 1777577612 | 16.11° C | 17% | 1015.2 hPa | 0 mm | - | - | - |
| 1777577020 | 16.11° C | 18% | 1015.3 hPa | 0 mm | - | - | - |
| 1777576409 | 15.56° C | 18% | 1015.3 hPa | 0 mm | - | - | - |
| 1777575822 | 15.56° C | 18% | 1016.1 hPa | 0 mm | - | - | - |
| 1777575222 | 16.11° C | 17% | 1015.9 hPa | 0 mm | - | - | - |
| 1777574608 | 16.11° C | 19% | 1015.9 hPa | 0 mm | - | - | - |
| 1777574021 | 16.11° C | 19% | 1016.1 hPa | 0 mm | - | - | - |
| 1777573405 | 16.11° C | 18% | 1016.6 hPa | 0 mm | - | - | - |
| 1777572815 | 15° C | 20% | 1016.6 hPa | 0 mm | - | - | - |
| 1777572229 | 15° C | 20% | 1016.3 hPa | 0 mm | - | - | - |
| 1777571609 | 15.56° C | 19% | 1016.5 hPa | 0 mm | - | - | - |
| 1777571019 | 15.56° C | 19% | 1016.5 hPa | 0 mm | - | - | - |
| 1777570430 | 15° C | 20% | 1016.5 hPa | 0 mm | - | - | - |
| 1777569814 | 15° C | 21% | 1016.5 hPa | 0 mm | - | - | - |
| 1777569220 | 15° C | 21% | 1016.5 hPa | 0 mm | - | - | - |
| 1777568632 | 15.56° C | 20% | 1016.8 hPa | 0 mm | - | - | - |
| 1777568011 | 15.56° C | 20% | 1016.9 hPa | 0 mm | - | - | - |
| 1777567417 | 15.56° C | 20% | 1016.9 hPa | 0 mm | - | - | - |
| 1777566832 | 15° C | 20% | 1016.5 hPa | 0 mm | - | - | - |
| 1777566211 | 15° C | 20% | 1016.5 hPa | 0 mm | - | - | - |
| 1777565621 | 14.44° C | 20% | 1016.5 hPa | 0 mm | - | - | - |
* Rain since midnight (hover to see other rain measurements)
** Current wind speed in m/s (hover to see current wind gust speed)